GW5798 Weather Reports


Display with metric or nautical units.
time (UTC)temp
F
wind
direction
speed
MPH
gust
MPH
rain 1hr
in
rain 24hr
in
rain mn
in
humidity
%
barometer
mb
20260506091115 76 209 1.0 6.0 0.00 0.00 0.00 91 1008.5
20260506090105 76 142 1.0 6.0 0.00 0.00 0.00 91 1008.6
20260506085055 76 127 1.0 4.0 0.00 0.00 0.00 91 1008.7
20260506084105 76 163 1.0 7.0 0.00 0.00 0.00 91 1008.7
20260506083055 76 127 1.0 4.0 0.00 0.00 0.00 91 1008.9
20260506082025 76 180 2.0 4.0 0.00 0.00 0.00 91 1008.9
20260506081116 76 161 1.0 3.0 0.00 0.00 0.00 91 1008.9
20260506080106 76 252 1.0 3.0 0.00 0.00 0.00 92 1009.0
20260506073036 76 125 1.0 2.0 0.00 0.00 0.00 92 1009.3
20260506072026 76 198 1.0 4.0 0.00 0.00 0.00 92 1009.5
20260506071016 76 157 1.0 4.0 0.00 0.00 0.00 92 1009.4
20260506070147 76 111 1.0 4.0 0.00 0.00 0.00 92 1009.5
20260506062107 76 121 1.0 4.0 0.00 0.00 0.00 92 1009.6
20260506061017 76 186 1.0 3.0 0.00 0.00 0.00 92 1009.8
20260506060107 76 257 1.0 2.0 0.00 0.00 0.00 92 1009.8
20260506051017 76 120 1.0 6.0 0.00 0.00 0.00 91 1009.8
20260506050108 76 185 1.0 3.0 0.00 0.00 0.00 91 1009.6
20260506045058 77 169 1.0 4.0 0.00 0.00 0.00 90 1009.7
20260506044048 77 184 1.0 3.0 0.00 0.00 0.00 89 1009.8
20260506043038 77 125 1.0 4.0 0.00 0.00 0.00 89 1009.7
20260506042028 77 147 1.0 3.0 0.00 0.00 0.00 88 1009.6
20260506041018 77 193 2.0 7.0 0.00 0.00 0.00 87 1009.4
20260506040209 78 230 2.0 6.0 0.00 0.00 0.00 86 1009.6
20260506035059 78 135 1.0 2.0 0.00 0.00 0.00 86 1009.4
20260506034049 78 213 1.0 6.0 0.00 0.00 0.00 86 1009.4
20260506033039 78 151 2.0 7.0 0.00 0.00 0.00 86 1009.1
20260506032049 78 162 1.0 4.0 0.00 0.00 0.00 86 1009.0
20260506031019 78 158 1.0 8.0 0.00 0.00 0.00 86 1008.8
20260506030130 78 197 1.0 4.0 0.00 0.00 0.00 85 1008.7
20260506025100 78 156 2.0 6.0 0.00 0.00 0.00 85 1008.8
20260506024109 78 136 2.0 6.0 0.00 0.00 0.00 85 1008.6
20260506023039 78 176 2.0 4.0 0.00 0.00 0.00 84 1008.5
20260506022029 79 166 2.0 7.0 0.00 0.00 0.00 84 1008.4
20260506021019 79 138 2.0 6.0 0.00 0.00 0.00 83 1008.3
20260506020110 79 144 2.0 6.0 0.00 0.00 0.00 82 1008.2
20260506015100 79 130 2.0 4.0 0.00 0.00 0.00 82 1008.0
20260506014050 79 169 2.0 7.0 0.00 0.00 0.00 81 1007.8
20260506013040 79 116 1.0 7.0 0.00 0.00 0.00 80 1007.8
20260506012050 79 194 1.0 4.0 0.00 0.00 0.00 79 1007.5
20260506011020 80 186 2.0 8.0 0.00 0.00 0.00 79 1007.3
20260506010111 80 172 2.0 6.0 0.00 0.00 0.00 79 1007.3
20260506005101 80 162 2.0 9.0 0.00 0.00 0.00 78 1007.2
20260506004051 80 176 2.0 6.0 0.00 0.00 0.00 78 1007.2
20260506003041 80 104 1.0 6.0 0.00 0.00 0.00 78 1007.1
20260506002051 81 164 2.0 7.0 0.00 0.00 0.00 77 1006.9
20260506001041 81 131 2.0 8.0 0.00 0.00 0.00 77 1007.1
20260506000112 81 145 1.0 4.0 0.00 0.00 0.00 78 1007.2
20260505235102 81 238 1.0 8.0 0.00 0.00 0.00 77 1007.0
20260505234052 81 178 4.0 8.0 0.00 0.00 0.00 76 1007.0
20260505233041 82 179 2.0 9.0 0.00 0.00 0.00 76 1007.0
20260505232032 82 138 1.0 8.0 0.00 0.00 0.00 76 1007.0
20260505231022 82 150 1.0 4.0 0.00 0.00 0.00 76 1006.9
20260505230112 82 165 2.0 9.0 0.00 0.00 0.00 76 1007.1
20260505225103 82 118 1.0 9.0 0.00 0.00 0.00 75 1006.9
20260505224053 82 222 1.0 7.0 0.00 0.00 0.00 75 1007.0
20260505223042 83 87 3.0 9.0 0.00 0.00 0.00 74 1007.1
20260505222032 83 247 2.0 6.0 0.00 0.00 0.00 73 1007.1
20260505221022 83 220 2.0 6.0 0.00 0.00 0.00 73 1007.1
20260505220113 83 127 2.0 8.0 0.00 0.00 0.00 73 1007.4
20260505215103 83 103 1.0 7.0 0.00 0.00 0.00 73 1007.3
20260505214113 84 166 2.0 7.0 0.00 0.00 0.00 71 1007.6
20260505213043 84 190 1.0 4.0 0.00 0.00 0.00 72 1007.5
20260505212033 83 118 3.0 9.0 0.00 0.00 0.00 73 1007.8
20260505211023 83 349 2.0 8.0 0.00 0.00 0.00 73 1008.0
20260505210134 83 137 3.0 7.0 0.00 0.00 0.00 73 1008.0
20260505205104 83 146 2.0 9.0 0.00 0.00 0.00 73 1008.3
20260505204054 83 94 2.0 10.0 0.00 0.00 0.00 73 1008.4
20260505203044 84 123 1.0 4.0 0.00 0.00 0.00 72 1008.4
20260505202054 84 143 2.0 7.0 0.00 0.00 0.00 72 1008.6
20260505201024 85 187 2.0 3.0 0.00 0.00 0.00 72 1008.7
20260505200115 84 315 1.0 9.0 0.00 0.00 0.00 73 1008.8
20260505195105 84 136 2.0 8.0 0.00 0.00 0.00 73 1008.9
20260505194115 83 125 2.0 4.0 0.00 0.00 0.00 74 1009.1
20260505193045 82 200 2.0 8.0 0.00 0.00 0.00 75 1009.0
20260505192035 83 130 2.0 8.0 0.00 0.00 0.00 74 1009.2
20260505191025 83 150 2.0 6.0 0.00 0.00 0.00 75 1009.3
20260505190115 83 174 2.0 3.0 0.00 0.00 0.00 74 1009.1
20260505185106 83 203 1.0 7.0 0.00 0.00 0.00 75 1009.2
20260505184055 82 94 2.0 7.0 0.00 0.00 0.00 75 1009.4
20260505183046 82 171 1.0 10.0 0.00 0.00 0.00 76 1009.5
20260505182035 82 145 2.0 6.0 0.00 0.00 0.00 77 1009.5
20260505181025 82 105 1.0 2.0 0.00 0.00 0.00 77 1009.6
20260505180016 81 229 1.0 6.0 0.00 0.00 0.00 78 1009.8
20260505175107 80 138 1.0 4.0 0.00 0.00 0.00 80 1010.0
20260505174056 80 125 1.0 6.0 0.00 0.00 0.00 78 1009.9
20260505173047 80 116 1.0 7.0 0.00 0.00 0.00 79 1009.9
20260505172116 80 155 2.0 6.0 0.00 0.00 0.00 78 1009.9
20260505171026 80 191 1.0 4.0 0.00 0.00 0.00 79 1009.9
20260505170016 80 122 1.0 4.0 0.00 0.00 0.00 80 1010.1
20260505165127 80 293 1.0 7.0 0.00 0.00 0.00 81 1010.1
20260505164137 80 310 1.0 3.0 0.00 0.00 0.00 81 1010.0
20260505163047 79 109 3.0 7.0 0.00 0.00 0.00 82 1009.9
20260505162037 79 146 1.0 3.0 0.00 0.00 0.00 82 1010.1
20260505161033 79 152 2.0 6.0 0.00 0.00 0.00 82 1009.9
20260505153108 77 107 2.0 6.0 0.00 0.00 0.00 86 1009.6
20260505152038 76 198 0.0 2.0 0.00 0.00 0.00 91 1009.6
20260505151028 75 143 1.0 3.0 0.00 0.00 0.00 90 1009.7
20260505124120 72 161 2.0 3.0 0.00 0.00 0.00 92 1009.2
20260505123050 72 163 1.0 2.0 0.00 0.00 0.00 93 1009.3
20260505122040 71 190 1.0 3.0 0.00 0.00 0.00 93 1009.2
20260505121030 71 239 1.0 3.0 0.00 0.00 0.00 93 1009.0
20260505120040 71 179 1.0 2.0 0.00 0.00 0.00 93 1008.9
20260505115111 71 180 1.0 3.0 0.00 0.00 0.00 93 1008.7
20260505114101 70 170 1.0 3.0 0.00 0.00 0.00 93 1008.9
20260505113051 70 142 1.0 3.0 0.00 0.00 0.00 93 1009.0
20260505112041 71 209 1.0 6.0 0.00 0.00 0.00 92 1008.9
20260505111031 71 102 1.0 4.0 0.00 0.00 0.00 92 1008.9
20260505102043 70 136 1.0 4.0 0.00 0.00 0.00 92 1008.9
20260505101031 70 173 1.0 3.0 0.00 0.00 0.00 92 1008.8
20260505100022 70 217 1.0 2.0 0.00 0.00 0.00 92 1009.0
20260505095112 70 224 0.0 1.0 0.00 0.00 0.00 91 1009.1
20260505094123 70 171 0.0 2.0 0.00 0.00 0.00 91 1008.9
20260505093052 70 196 1.0 2.0 0.00 0.00 0.00 91 1009.0
20260505092042 70 183 1.0 3.0 0.00 0.00 0.00 91 1009.1